Home   Weather   La-Chaux-de-Fonds   Past weeks

Flag for Switzerland Past Weather in La-Chaux-de-Fonds, Neuchâtel, Switzerland — Yesterday and Last 2 Weeks

Now
34 °F

Clear.


Feels Like: 31 °F
Forecast: 26 / 39 °F
Wind: 3 mph from East

Location: Les Eplatures

Current Time: Dec 6, 2016 at 9:11:16 pm

Latest Report: Dec 6, 2016 at 8:20 pm


Visibility: 10 mi

Pressure: 30.39 "Hg (26.83 "Hg at 1000m altitude)

Humidity: 75%

Dew Point: 27 °F

Location of La-Chaux-de-FondsLocation

Past Weather in La-Chaux-de-Fonds — Graph

°F

La-Chaux-de-Fonds Temperature Yesterday

Maximum temperature yesterday: 50 °F (at 2:20 pm)
Minimum temperature yesterday: 23 °F (at 5:20 am)
Average temperature yesterday: 33 °F

High & Low Weather Summary for the Past Weeks

 TemperatureHumidityPressure
High57 °F (Nov 23, 1:50 pm)100% (Nov 22, 12:50 am)30.48 "Hg (Nov 22, 12:50 am)
Low19 °F (Nov 30, 1:50 am)23% (Dec 1, 2:50 pm)29.62 "Hg (Nov 21, 7:20 pm)
Average36 °F85%30.09 "Hg
* Reported Nov 21 7:20 pm — Dec 6 7:50 pm, La-Chaux-de-Fonds, Weather by CustomWeather, © 2016

Note: Actual official high and low records may vary slightly from our data, if they occured in-between our weather recording intervals... More about our weather records

Advertising

La-Chaux-de-Fonds Weather History for the Previous 24 Hours

Scroll right to see more
 ConditionsComfort  
Time TempWeatherWind HumidityBarometerVisibility
7:50 pm
Tue, Dec 6
36 °FPassing clouds.5 mph70%30.39 "HgN/A
6:50 pm30 °FClear.2 mph86%30.39 "Hg10 mi
6:20 pm30 °FClear.1 mph86%30.39 "Hg10 mi
5:50 pm32 °FClear.No wind80%30.39 "Hg10 mi
5:20 pm34 °FSunny.1 mph75%30.39 "Hg10 mi
4:50 pm34 °FSunny.1 mph81%30.39 "Hg10 mi
4:20 pm39 °FSunny.1 mph61%30.39 "Hg10 mi
3:50 pm43 °FSunny.3 mph53%30.39 "Hg10 mi
3:20 pm45 °FSunny.6 mph49%30.36 "Hg10 mi
2:50 pm46 °FSunny.6 mph46%30.36 "Hg10 mi
2:20 pm46 °FPassing clouds.5 mph46%30.36 "HgN/A
1:50 pm46 °FPassing clouds.7 mph46%30.36 "HgN/A
1:20 pm46 °FPassing clouds.7 mph46%30.36 "HgN/A
12:50 pm46 °FPassing clouds.6 mph46%30.36 "HgN/A
12:20 pm46 °FPassing clouds.3 mph46%30.36 "HgN/A
11:50 am46 °FSunny.5 mph50%30.36 "Hg10 mi
11:20 am45 °FSunny.2 mph61%30.36 "Hg10 mi
10:50 am41 °FSunny.1 mph70%30.36 "Hg10 mi
10:20 am36 °FSunny.No wind87%30.36 "Hg10 mi
9:50 am32 °FSunny.No wind100%30.36 "Hg10 mi
9:20 am28 °FSunny.No wind93%30.36 "Hg10 mi
8:50 am27 °FClear.No wind100%30.36 "Hg10 mi
8:20 am27 °FClear.1 mph93%30.36 "Hg10 mi
7:50 am25 °FClear.No wind100%30.36 "Hg10 mi
7:20 am25 °FClear.No wind100%30.36 "Hg10 mi
6:50 am25 °FClear.No wind100%30.33 "Hg10 mi
6:20 am25 °FClear.No wind100%30.33 "Hg10 mi
5:50 am25 °FClear.No wind100%30.33 "Hg10 mi
5:20 am25 °FClear.No wind100%30.33 "Hg10 mi
4:50 am25 °FClear.No wind100%30.33 "Hg10 mi
4:20 am25 °FCold.No wind100%30.33 "HgN/A
3:50 am25 °FClear.No wind100%30.33 "Hg10 mi
3:20 am27 °FClear.1 mph100%30.33 "Hg10 mi
2:50 am28 °FClear.2 mph100%30.33 "Hg10 mi
2:20 am27 °FClear.No wind100%30.33 "Hg10 mi
1:50 am28 °FClear.No wind100%30.33 "Hg10 mi
1:20 am30 °FChilly.No wind93%30.33 "HgN/A
12:50 am28 °FPassing clouds.No wind100%30.33 "HgN/A
12:20 am28 °FClear.No wind93%30.33 "Hg10 mi
11:50 pm
Mon, Dec 5
28 °FClear.No wind93%30.33 "Hg10 mi
11:20 pm30 °FClear.No wind93%30.33 "Hg10 mi
10:50 pm28 °FClear.No wind86%30.30 "Hg10 mi
10:20 pm30 °FClear.No wind93%30.30 "Hg10 mi
9:50 pm27 °FClear.No wind93%30.30 "Hg10 mi
9:20 pm30 °FClear.1 mph93%30.30 "Hg10 mi
Weather by CustomWeather, © 2016

See weather overviewHow to use our weather pages